Torna al catalogo

TITAN 3C TRANSTAGE DEB

LostHEO
NORAD 27794·DEBRIS·🇺🇸 United States

Lanciato Dec 21, 1965 da Cape Canaveral Space Force Station

Loading…

Prossimi Passaggi (prossime 24 ore)

TLE

ObsoletoSource: Space-Track

Epoca: Aug 11, 2026, 02:50 UTC

1 27794U 65108BJ  26223.11809596 -.00000156  00000-0  24164-3 0  9996
2 27794  26.3807 108.9690 6694725 218.2814 343.9925  2.77202039124469

Traccia TITAN 3C TRANSTAGE DEB in tempo reale con AllMySat

Download on the App Store